�������l�o���
Date,Time,MP-1(��Sv/h),MP-2(��Sv/h),MP-3(��Sv/h),MP-4(��Sv/h),MP-5(��Sv/h),MP-6(��Sv/h),MP-7(��Sv/h),MP-8(��Sv/h),����,����(m/s),���J
2018/01/21,00:00,0.874,1.454,0.916,1.713,1.161,0.486,0.869,0.835,��,7.9,��
2018/01/21,00:10,0.872,1.451,0.919,1.717,1.162,0.485,0.867,0.835,���k��,9.0,��
2018/01/21,00:20,0.872,1.450,0.919,1.717,1.165,0.486,0.866,0.834,���k��,10.2,��
2018/01/21,00:30,0.873,1.453,0.918,1.715,1.162,0.485,0.867,0.834,���k��,9.8,��
2018/01/21,00:40,0.872,1.452,0.917,1.716,1.158,0.486,0.867,0.834,���k��,10.3,��
2018/01/21,00:50,0.871,1.453,0.918,1.716,1.160,0.486,0.866,0.836,�k��,11.3,��
2018/01/21,01:00,0.875,1.451,0.916,1.717,1.162,0.485,0.868,0.833,�k��,11.9,��
2018/01/21,01:10,0.872,1.452,0.917,1.717,1.163,0.485,0.867,0.833,�k��,11.6,��
2018/01/21,01:20,0.873,1.452,0.917,1.717,1.161,0.486,0.867,0.833,�k��,10.6,��
2018/01/21,01:30,0.875,1.451,0.917,1.716,1.162,0.487,0.868,0.834,���k��,8.2,��
2018/01/21,01:40,0.872,1.454,0.918,1.717,1.163,0.485,0.866,0.834,���k��,9.6,��
2018/01/21,01:50,0.875,1.454,0.918,1.715,1.161,0.486,0.867,0.832,�k��,8.6,��
2018/01/21,02:00,0.873,1.455,0.916,1.717,1.162,0.487,0.866,0.836,�k��,8.1,��
2018/01/21,02:10,0.874,1.453,0.917,1.718,1.161,0.487,0.867,0.834,�k��,7.1,��
2018/01/21,02:20,0.873,1.453,0.917,1.718,1.159,0.487,0.865,0.833,�k��,8.5,��
2018/01/21,02:30,0.873,1.451,0.916,1.717,1.161,0.487,0.868,0.834,�k��,7.5,��
2018/01/21,02:40,0.873,1.453,0.916,1.717,1.159,0.488,0.868,0.831,���k��,3.2,��
2018/01/21,02:50,0.872,1.452,0.916,1.716,1.162,0.486,0.866,0.834,�k��,4.2,��
2018/01/21,03:00,0.870,1.453,0.919,1.716,1.160,0.486,0.866,0.832,�k��,3.6,��
2018/01/21,03:10,0.873,1.453,0.916,1.717,1.160,0.486,0.867,0.833,�k�k��,3.6,��
2018/01/21,03:20,0.873,1.451,0.916,1.717,1.161,0.486,0.866,0.834,�k�k��,4.3,��
2018/01/21,03:30,0.872,1.453,0.918,1.718,1.159,0.485,0.866,0.833,�k��,3.9,��
2018/01/21,03:40,0.871,1.453,0.917,1.716,1.159,0.486,0.867,0.834,�k��,4.4,��
2018/01/21,03:50,0.871,1.449,0.917,1.719,1.160,0.485,0.864,0.834,���k��,2.9,��
2018/01/21,04:00,0.872,1.452,0.918,1.715,1.163,0.485,0.866,0.834,���k��,1.9,��
2018/01/21,04:10,0.873,1.452,0.917,1.715,1.160,0.487,0.865,0.831,�k��,2.0,��
2018/01/21,04:20,0.872,1.451,0.917,1.716,1.161,0.485,0.866,0.832,-,CALM,��
2018/01/21,04:30,0.872,1.454,0.914,1.715,1.162,0.485,0.864,0.833,���k��,1.7,��
2018/01/21,04:40,0.873,1.451,0.915,1.715,1.159,0.486,0.867,0.833,���k��,2.6,��
2018/01/21,04:50,0.871,1.453,0.916,1.716,1.159,0.485,0.864,0.830,�k��,4.6,��
2018/01/21,05:00,0.872,1.453,0.914,1.717,1.159,0.485,0.864,0.831,���k��,3.9,��
2018/01/21,05:10,0.872,1.450,0.917,1.716,1.160,0.486,0.866,0.833,���k��,2.6,��
2018/01/21,05:20,0.871,1.452,0.915,1.712,1.162,0.486,0.865,0.833,�k��,3.4,��
2018/01/21,05:30,0.871,1.450,0.915,1.716,1.159,0.485,0.864,0.832,�k��,4.7,��
2018/01/21,05:40,0.870,1.449,0.914,1.716,1.159,0.485,0.866,0.832,�k�k��,6.2,��
2018/01/21,05:50,0.871,1.450,0.915,1.714,1.159,0.485,0.866,0.832,�k�k��,6.9,��
2018/01/21,06:00,0.871,1.449,0.913,1.716,1.159,0.485,0.865,0.832,�k�k��,7.5,��
2018/01/21,06:10,0.871,1.449,0.916,1.715,1.159,0.485,0.863,0.831,�k�k��,6.5,��
2018/01/21,06:20,0.870,1.449,0.914,1.716,1.160,0.485,0.865,0.832,�k�k��,5.5,��
2018/01/21,06:30,0.871,1.452,0.915,1.715,1.158,0.484,0.864,0.831,�k�k��,5.0,��
2018/01/21,06:40,0.869,1.450,0.915,1.714,1.159,0.483,0.864,0.831,�k�k��,5.0,��
2018/01/21,06:50,0.872,1.451,0.916,1.714,1.157,0.484,0.864,0.831,�k�k��,4.4,��
2018/01/21,07:00,0.873,1.450,0.915,1.716,1.159,0.485,0.865,0.834,�k�k��,4.0,��
2018/01/21,07:10,0.870,1.450,0.914,1.714,1.155,0.486,0.864,0.832,�k�k��,3.6,��
2018/01/21,07:20,0.872,1.450,0.913,1.714,1.157,0.482,0.864,0.833,�k�k��,2.8,��
2018/01/21,07:30,0.870,1.448,0.915,1.711,1.156,0.484,0.864,0.832,�k��,3.2,��
2018/01/21,07:40,0.870,1.450,0.915,1.717,1.156,0.483,0.864,0.832,�k��,3.9,��
2018/01/21,07:50,0.870,1.452,0.915,1.715,1.155,0.484,0.865,0.832,�k�k��,3.5,��
2018/01/21,08:00,0.870,1.451,0.914,1.714,1.156,0.485,0.866,0.831,�k�k��,3.7,��
2018/01/21,08:10,0.871,1.453,0.918,1.716,1.159,0.485,0.866,0.832,�k��,3.8,��
2018/01/21,08:20,0.871,1.455,0.915,1.716,1.158,0.484,0.866,0.834,�k�k��,3.5,��
2018/01/21,08:30,0.871,1.451,0.916,1.717,1.158,0.485,0.866,0.833,�k��,2.3,��
2018/01/21,08:40,0.873,1.454,0.916,1.718,1.160,0.486,0.866,0.833,�k�k��,1.2,��
2018/01/21,08:50,0.874,1.455,0.915,1.718,1.161,0.484,0.866,0.833,�k��,0.9,��
2018/01/21,09:00,0.873,1.455,0.917,1.719,1.163,0.484,0.868,0.833,�k��,1.7,��
2018/01/21,09:10,0.874,1.454,0.916,1.720,1.160,0.486,0.867,0.833,�k��,1.7,��
2018/01/21,09:20,0.872,1.456,0.915,1.718,1.162,0.486,0.867,0.833,���k��,1.9,��
2018/01/21,09:30,0.871,1.454,0.916,1.719,1.158,0.485,0.867,0.833,��,1.5,��
2018/01/21,09:40,0.874,1.453,0.916,1.719,1.162,0.486,0.867,0.834,��,1.5,��
2018/01/21,09:50,0.873,1.455,0.917,1.719,1.163,0.484,0.867,0.835,�k��,1.7,��
2018/01/21,10:00,0.874,1.455,0.917,1.719,1.161,0.486,0.865,0.833,���쓌,1.9,��
2018/01/21,10:10,0.874,1.458,0.917,1.720,1.164,0.486,0.867,0.836,���쓌,3.0,��
2018/01/21,10:20,0.872,1.453,0.917,1.720,1.162,0.487,0.864,0.833,�쓌,3.5,��
2018/01/21,10:30,0.874,1.453,0.916,1.721,1.162,0.486,0.864,0.833,��쓌,4.4,��
2018/01/21,10:40,0.872,1.454,0.917,1.721,1.165,0.487,0.866,0.833,��쓌,4.9,��
2018/01/21,10:50,0.876,1.452,0.919,1.720,1.163,0.487,0.864,0.834,��쓌,4.7,��
2018/01/21,11:00,0.876,1.452,0.916,1.717,1.165,0.487,0.863,0.833,��쓌,5.8,��
2018/01/21,11:10,0.877,1.454,0.919,1.719,1.166,0.486,0.865,0.834,��쓌,5.9,��
2018/01/21,11:20,0.877,1.454,0.918,1.720,1.165,0.486,0.865,0.833,��쓌,5.7,��
2018/01/21,11:30,0.875,1.455,0.920,1.721,1.164,0.486,0.865,0.834,��쓌,6.1,��
2018/01/21,11:40,0.877,1.456,0.917,1.723,1.166,0.486,0.867,0.834,��쓌,6.7,��
2018/01/21,11:50,0.878,1.453,0.919,1.720,1.164,0.487,0.864,0.835,�쓌,5.5,��
2018/01/21,12:00,0.877,1.453,0.920,1.721,1.165,0.488,0.866,0.834,��쓌,5.9,��
2018/01/21,12:10,0.877,1.454,0.922,1.721,1.167,0.487,0.866,0.835,�쓌,6.7,��
2018/01/21,12:20,0.877,1.457,0.921,1.720,1.167,0.488,0.867,0.834,��쓌,5.7,��
2018/01/21,12:30,0.877,1.458,0.921,1.723,1.164,0.488,0.866,0.835,��쓌,7.7,��
2018/01/21,12:40,0.877,1.458,0.920,1.721,1.165,0.487,0.866,0.835,��쓌,6.0,��
2018/01/21,12:50,0.880,1.463,0.921,1.721,1.164,0.487,0.867,0.836,��쓌,7.5,��
2018/01/21,13:00,0.881,1.464,0.919,1.722,1.166,0.487,0.867,0.836,��쓌,8.0,��
2018/01/21,13:10,0.877,1.463,0.921,1.721,1.161,0.488,0.866,0.835,��쓌,6.9,��
2018/01/21,13:20,0.879,1.460,0.920,1.721,1.166,0.488,0.867,0.834,��쓌,7.4,��
2018/01/21,13:30,0.878,1.459,0.922,1.722,1.165,0.489,0.866,0.835,��쓌,6.7,��
2018/01/21,13:40,0.878,1.458,0.920,1.722,1.167,0.488,0.868,0.834,��쓌,8.2,��
2018/01/21,13:50,0.878,1.461,0.922,1.720,1.166,0.491,0.867,0.835,��쓌,7.1,�L
2018/01/21,14:00,0.880,1.462,0.920,1.724,1.167,0.488,0.868,0.835,��쓌,7.2,��
2018/01/21,14:10,0.878,1.464,0.921,1.721,1.170,0.489,0.868,0.836,��쓌,5.8,�L
2018/01/21,14:20,0.879,1.461,0.921,1.722,1.171,0.489,0.866,0.837,��,5.2,��
2018/01/21,14:30,0.878,1.462,0.922,1.721,1.169,0.489,0.868,0.833,��쓌,3.5,��
2018/01/21,14:40,0.881,1.462,0.922,1.720,1.170,0.490,0.868,0.836,��쐼,4.0,��
2018/01/21,14:50,0.880,1.465,0.921,1.722,1.170,0.490,0.868,0.837,��,3.9,��
2018/01/21,15:00,0.880,1.462,0.921,1.721,1.170,0.490,0.868,0.835,��쐼,2.6,��
2018/01/21,15:10,0.879,1.462,0.923,1.723,1.169,0.490,0.871,0.836,�쐼,2.6,��
2018/01/21,15:20,0.880,1.464,0.923,1.723,1.169,0.490,0.868,0.834,�쐼,4.2,��
2018/01/21,15:30,0.880,1.463,0.925,1.725,1.169,0.490,0.866,0.835,�쐼,3.4,��
2018/01/21,15:40,0.882,1.461,0.920,1.725,1.169,0.492,0.868,0.835,���쐼,4.3,��
2018/01/21,15:50,0.880,1.462,0.921,1.723,1.171,0.490,0.869,0.836,��쐼,2.0,��
2018/01/21,16:00,0.880,1.460,0.923,1.721,1.169,0.491,0.868,0.837,��쓌,4.4,��
2018/01/21,16:10,0.880,1.461,0.920,1.720,1.169,0.490,0.868,0.835,��쓌,5.4,��
2018/01/21,16:20,0.880,1.460,0.921,1.722,1.169,0.489,0.870,0.834,��쓌,4.3,��
2018/01/21,16:30,0.879,1.462,0.921,1.721,1.169,0.489,0.868,0.834,��쓌,3.6,��
2018/01/21,16:40,0.879,1.459,0.922,1.718,1.169,0.489,0.867,0.834,��쓌,3.5,��
2018/01/21,16:50,0.876,1.462,0.921,1.723,1.166,0.490,0.867,0.834,�쐼,1.4,��
2018/01/21,17:00,0.878,1.459,0.919,1.722,1.166,0.489,0.867,0.833,�k�k��,1.9,��
2018/01/21,17:10,0.876,1.460,0.919,1.723,1.169,0.487,0.868,0.834,�k,11.3,��
2018/01/21,17:20,0.877,1.458,0.920,1.721,1.167,0.489,0.868,0.835,�k,8.1,��
2018/01/21,17:30,0.875,1.459,0.919,1.719,1.168,0.488,0.866,0.833,�k,10.2,��
2018/01/21,17:40,0.875,1.455,0.918,1.720,1.169,0.487,0.865,0.835,�k,12.2,�L
2018/01/21,17:50,0.874,1.458,0.918,1.720,1.170,0.486,0.867,0.833,�k,10.8,�L
2018/01/21,18:00,0.874,1.458,0.918,1.722,1.170,0.486,0.867,0.833,�k,10.2,�L
2018/01/21,18:10,0.875,1.460,0.917,1.719,1.167,0.484,0.866,0.834,�k�k��,10.0,��
2018/01/21,18:20,0.872,1.458,0.920,1.720,1.166,0.484,0.867,0.832,�k,10.0,��
2018/01/21,18:30,0.874,1.459,0.918,1.720,1.167,0.484,0.866,0.832,�k�k��,8.9,��
2018/01/21,18:40,0.869,1.460,0.916,1.719,1.166,0.482,0.867,0.833,�k�k��,8.1,��
2018/01/21,18:50,0.870,1.458,0.917,1.719,1.165,0.483,0.866,0.831,�k�k��,7.8,��
2018/01/21,19:00,0.872,1.456,0.917,1.720,1.167,0.483,0.865,0.832,�k�k��,7.8,��
2018/01/21,19:10,0.872,1.457,0.915,1.718,1.168,0.485,0.865,0.831,�k�k��,6.5,��
2018/01/21,19:20,0.873,1.459,0.916,1.720,1.166,0.484,0.866,0.833,�k�k��,7.1,��
2018/01/21,19:30,0.874,1.459,0.915,1.719,1.166,0.484,0.864,0.832,�k�k��,7.5,��
2018/01/21,19:40,0.874,1.458,0.915,1.719,1.164,0.484,0.865,0.832,�k�k��,8.2,��
2018/01/21,19:50,0.873,1.459,0.916,1.718,1.169,0.485,0.868,0.831,�k�k��,8.1,��
2018/01/21,20:00,0.872,1.458,0.915,1.721,1.166,0.486,0.865,0.832,�k�k��,7.8,��
2018/01/21,20:10,0.873,1.456,0.916,1.719,1.166,0.485,0.865,0.833,�k�k��,8.0,��
2018/01/21,20:20,0.872,1.459,0.915,1.720,1.165,0.483,0.867,0.832,�k�k��,6.9,��
2018/01/21,20:30,0.873,1.455,0.917,1.717,1.166,0.484,0.867,0.833,�k�k��,6.1,��
2018/01/21,20:40,0.874,1.458,0.917,1.720,1.167,0.483,0.866,0.831,�k��,6.8,��
2018/01/21,20:50,0.873,1.461,0.915,1.719,1.166,0.483,0.865,0.831,�k��,9.0,��
2018/01/21,21:00,0.876,1.454,0.916,1.721,1.168,0.486,0.867,0.833,�k��,11.0,��
2018/01/21,21:10,0.873,1.456,0.916,1.721,1.164,0.485,0.864,0.832,�k��,10.5,��
2018/01/21,21:20,0.874,1.455,0.914,1.717,1.165,0.483,0.866,0.831,�k��,11.8,��
2018/01/21,21:30,0.872,1.459,0.915,1.716,1.165,0.485,0.867,0.834,�k��,9.3,��
2018/01/21,21:40,0.876,1.457,0.914,1.720,1.167,0.483,0.865,0.831,�k��,9.9,��
2018/01/21,21:50,0.873,1.459,0.914,1.722,1.165,0.483,0.866,0.831,�k��,9.8,��
2018/01/21,22:00,0.873,1.456,0.914,1.720,1.165,0.484,0.868,0.833,�k��,7.8,��
2018/01/21,22:10,0.871,1.457,0.918,1.722,1.166,0.484,0.866,0.831,�k��,9.8,��
2018/01/21,22:20,0.874,1.458,0.916,1.719,1.163,0.485,0.868,0.834,�k��,8.4,��
2018/01/21,22:30,0.873,1.456,0.915,1.723,1.167,0.484,0.865,0.832,�k��,9.0,��
2018/01/21,22:40,0.872,1.458,0.916,1.719,1.165,0.484,0.867,0.832,�k��,8.5,��
2018/01/21,22:50,0.872,1.455,0.916,1.718,1.168,0.485,0.866,0.832,�k��,8.5,��
2018/01/21,23:00,0.872,1.457,0.917,1.719,1.163,0.485,0.866,0.835,�k��,9.3,��
2018/01/21,23:10,0.873,1.456,0.917,1.720,1.166,0.484,0.866,0.832,�k��,9.3,��
2018/01/21,23:20,0.871,1.460,0.915,1.718,1.165,0.485,0.866,0.832,�k��,11.0,��
2018/01/21,23:30,0.872,1.458,0.917,1.723,1.165,0.485,0.864,0.832,�k��,10.6,��
2018/01/21,23:40,0.871,1.456,0.916,1.720,1.163,0.484,0.864,0.833,�k��,8.3,��
2018/01/21,23:50,0.870,1.456,0.916,1.724,1.165,0.484,0.867,0.833,�k��,7.6,��
